Weather History for Rensselaer, IN

Change the Weather History Date:

Saturday, October 13, 2012

  Actual Average (KVPZ) Record (KVPZ)
Temperature  
Mean Temperature 53 °F 53 °F  
Max Temperature 64 °F 64 °F 83 °F (2008)
Min Temperature 42 °F 43 °F 31 °F (2006)
Degree Days  
Heating Degree Days 12 12  
Month to date heating degree days 136  
Since 1 July heating degree days 266  
Cooling Degree Days 0 0  
Month to date cooling degree days 11  
Year to date cooling degree days 713  
Growing Degree Days 3 (Base 50)    
Moisture  
Dew Point 48 °F    
Average Humidity 79    
Maximum Humidity 100    
Minimum Humidity 53    
Precipitation  
Precipitation 0.36 in 0.11 in 1.93 in (2001)
Month to date precipitation 1.33  
Year to date precipitation 30.08  
Sea Level Pressure  
Sea Level Pressure 30.04 in    
Wind  
Wind Speed 9 mph (SSE)    
Max Wind Speed 16 mph    
Max Gust Speed 24 mph    
Visibility 7 miles    
Events Rain , Thunderstorm    
T = Trace of Precipitation, MM = Missing Value Source: NWS Daily Summary

Daily Weather History Graph

Daily Weather History Graph

Search for Another Location

Airport:

Trip Planner

Search our weather history database for the weather conditions in past years. The results will help you decide how hot, cold, wet, or windy it might be!

Date:

Astronomy

Oct. 13, 2012 Rise Set
Actual Time 6:58 AM CDT 6:10 PM CDT
Civil Twilight 6:30 AM CDT 6:38 PM CDT
Nautical Twilight 5:59 AM CDT 7:09 PM CDT
Astronomical Twilight 5:27 AM CDT 7:41 PM CDT
Moon 4:47 AM CDT (10/13) 4:54 PM CDT (10/13)
Length of Visible Light 12h 07m
Length of Day
11h 12m
Waning Crescent, 5% of the Moon is Illuminated
Oct 13
Waning Crescent
Oct 15
New
Oct 21
First Quarter
Oct 29
Full
Nov 6
Last Quarter

Hourly Weather History & Observations

Time (CDT) Temp. Windchill Dew Point Humidity Pressure Visibility Wind Dir Wind Speed Gust Speed Precip Events Conditions
1:35 AM 42.8 °F 38.6 °F 28.4 °F 57% 30.27 in 10.0 mi ESE 6.9 mph - N/A   Clear
1:55 AM 42.8 °F 38.6 °F 28.4 °F 57% 30.27 in 10.0 mi ESE 6.9 mph - N/A   Clear
2:15 AM 44.6 °F 39.7 °F 28.4 °F 53% 30.26 in 10.0 mi ESE 9.2 mph - N/A   Clear
2:35 AM 44.6 °F 40.7 °F 28.4 °F 53% 30.25 in 10.0 mi ESE 6.9 mph - N/A   Mostly Cloudy
2:55 AM 44.6 °F 40.7 °F 28.4 °F 53% 30.24 in 10.0 mi ESE 6.9 mph - N/A   Overcast
3:15 AM 44.6 °F 40.7 °F 30.2 °F 57% 30.23 in 10.0 mi ESE 6.9 mph - N/A   Overcast
3:35 AM 44.6 °F 41.4 °F 30.2 °F 57% 30.23 in 10.0 mi ESE 5.8 mph - N/A   Overcast
3:55 AM 44.6 °F 41.4 °F 30.2 °F 57% 30.21 in 10.0 mi ESE 5.8 mph - N/A   Mostly Cloudy
4:15 AM 44.6 °F 40.2 °F 30.2 °F 57% 30.20 in 10.0 mi SE 8.1 mph - N/A   Mostly Cloudy
4:35 AM 44.6 °F 40.7 °F 30.2 °F 57% 30.19 in 10.0 mi SE 6.9 mph - N/A   Overcast
5:35 AM 46.4 °F 42.9 °F 32.0 °F 57% 30.17 in 10.0 mi SE 6.9 mph - N/A   Overcast
5:55 AM 46.4 °F 42.4 °F 32.0 °F 57% 30.16 in 10.0 mi SE 8.1 mph - N/A   Overcast
6:15 AM 46.4 °F 42.4 °F 32.0 °F 57% 30.16 in 10.0 mi SSE 8.1 mph - N/A   Overcast
6:35 AM 46.4 °F 43.5 °F 33.8 °F 62% 30.16 in 10.0 mi SSE 5.8 mph - N/A   Scattered Clouds
6:55 AM 48.2 °F - 35.6 °F 62% 30.15 in 10.0 mi SSE 6.9 mph - N/A   Scattered Clouds
7:15 AM 50.0 °F - 35.6 °F 58% 30.15 in 10.0 mi SSE 6.9 mph - N/A   Scattered Clouds
7:35 AM 50.0 °F - 37.4 °F 62% 30.15 in 10.0 mi SSE 6.9 mph - N/A   Mostly Cloudy
7:55 AM 50.0 °F - 37.4 °F 62% 30.14 in 10.0 mi SSE 8.1 mph - N/A   Overcast
8:15 AM 51.8 °F - 37.4 °F 58% 30.14 in 10.0 mi SSE 8.1 mph - N/A   Overcast
8:55 AM 51.8 °F - 41.0 °F 67% 30.12 in 10.0 mi SSE 6.9 mph - N/A   Mostly Cloudy
9:55 AM 53.6 °F - 41.0 °F 62% 30.09 in 10.0 mi South 10.4 mph - N/A   Scattered Clouds
10:15 AM 55.4 °F - 42.8 °F 63% 30.08 in 10.0 mi South 8.1 mph - N/A Rain Light Rain
11:15 AM 55.4 °F - 46.4 °F 72% 30.06 in 10.0 mi South 9.2 mph - N/A Rain , Thunderstorm Rain
11:35 AM 53.6 °F - 50.0 °F 88% 30.06 in 4.0 mi South 6.9 mph - 0.01 in Rain , Thunderstorm Heavy Thunderstorms and Rain
11:55 AM 53.6 °F - 51.8 °F 94% 30.05 in 3.0 mi SSW 4.6 mph - 0.04 in Rain , Thunderstorm Heavy Thunderstorms and Rain
12:35 PM 53.6 °F - 53.6 °F 100% 30.05 in 3.0 mi South 8.1 mph - 0.05 in Rain Heavy Rain
12:55 PM 55.4 °F - 53.6 °F 94% 30.04 in 3.0 mi South 10.4 mph 17.3 mph 0.08 in Rain Heavy Rain
1:15 PM 55.4 °F - 55.4 °F 100% 30.03 in 4.0 mi South 9.2 mph 16.1 mph 0.02 in Rain Rain
1:35 PM 57.2 °F - 55.4 °F 94% 30.01 in 3.0 mi South 12.7 mph 17.3 mph 0.04 in Rain Heavy Rain
1:55 PM 57.2 °F - 55.4 °F 94% 29.99 in 4.0 mi South 13.8 mph 20.7 mph 0.06 in Rain , Thunderstorm Rain
2:15 PM 59.0 °F - 55.4 °F 88% 29.97 in 4.0 mi South 15.0 mph 20.7 mph 0.01 in Rain Rain
2:35 PM 59.0 °F - 57.2 °F 94% 29.97 in 4.0 mi South 15.0 mph 19.6 mph 0.03 in Rain Rain
2:55 PM 59.0 °F - 59.0 °F 100% 29.96 in 3.0 mi South 12.7 mph 21.9 mph 0.05 in Rain Rain
3:15 PM 60.8 °F - 59.0 °F 94% 29.96 in 3.0 mi South 12.7 mph 18.4 mph 0.01 in Rain Rain
3:35 PM 60.8 °F - 59.0 °F 94% 29.94 in 3.0 mi South 13.8 mph 20.7 mph 0.03 in   Light Drizzle
3:55 PM 60.8 °F - 60.8 °F 100% 29.94 in 3.0 mi South 10.4 mph 16.1 mph 0.04 in   Overcast
4:15 PM 60.8 °F - 59.0 °F 94% 29.93 in 3.0 mi South 10.4 mph 16.1 mph 0.01 in   Overcast
4:35 PM 60.8 °F - 60.8 °F 100% 29.91 in 4.0 mi South 10.4 mph - 0.02 in   Mostly Cloudy
4:55 PM 62.6 °F - 60.8 °F 94% 29.91 in 4.0 mi South 12.7 mph 18.4 mph 0.03 in   Scattered Clouds
5:15 PM 62.6 °F - 60.8 °F 94% 29.90 in 4.0 mi South 13.8 mph 19.6 mph N/A   Clear
5:35 PM 62.6 °F - 60.8 °F 94% 29.89 in 5.0 mi South 16.1 mph 21.9 mph 0.01 in   Clear
5:55 PM 62.6 °F - 60.8 °F 94% 29.89 in 5.0 mi South 12.7 mph 20.7 mph 0.02 in   Clear
6:15 PM 62.6 °F - 60.8 °F 94% 29.89 in 5.0 mi South 11.5 mph 18.4 mph 0.01 in   Clear
6:35 PM 62.6 °F - 60.8 °F 94% 29.88 in 7.0 mi South 12.7 mph 21.9 mph 0.01 in   Scattered Clouds
6:55 PM 64.4 °F - 60.8 °F 88% 29.89 in 7.0 mi South 10.4 mph - 0.02 in   Scattered Clouds
7:35 PM 64.4 °F - 62.6 °F 94% 29.91 in 7.0 mi South 9.2 mph 18.4 mph N/A   Overcast
8:15 PM 64.4 °F - 62.6 °F 94% 29.91 in 7.0 mi SSW 10.4 mph - N/A   Overcast
9:15 PM 64.4 °F - 62.6 °F 94% 29.90 in 7.0 mi SSW 15.0 mph 24.2 mph 0.01 in Rain Rain
9:35 PM 64.4 °F - 62.6 °F 94% 29.90 in 7.0 mi SSW 9.2 mph - 0.01 in   Drizzle
9:55 PM 64.4 °F - 62.6 °F 94% 29.89 in 7.0 mi SSW 9.2 mph - 0.01 in Rain Light Rain
10:15 PM 64.4 °F - 62.6 °F 94% 29.89 in 7.0 mi SSW 9.2 mph - N/A   Light Drizzle
10:35 PM 64.4 °F - 62.6 °F 94% 29.88 in 7.0 mi South 6.9 mph - N/A   Scattered Clouds
11:35 PM 64.4 °F - 62.6 °F 94% 29.86 in 10.0 mi SSW 8.1 mph - 0.01 in   Mostly Cloudy